Weather History for KYKM - July, 2013

Change the Weather History Date:

Friday, July 5, 2013

  Actual Average Record
Temperature  
Mean Temperature 75 °F 68 °F  
Max Temperature 87 °F 85 °F 107 °F (1975)
Min Temperature 62 °F 52 °F 38 °F (1986)
Degree Days  
Heating Degree Days 0 1  
Month to date heating degree days 0 5  
Since 1 June heating degree days 39 103  
Since 1 July heating degree days 0 5  
Cooling Degree Days 10 5  
Month to date cooling degree days 82 21  
Year to date cooling degree days 250 106  
Since 1 June cooling degree days 198 86  
Growing Degree Days 24 (Base 50)    
Moisture  
Dew Point 44 °F    
Average Humidity 34    
Maximum Humidity 48    
Minimum Humidity 19    
Precipitation  
Precipitation 0.00 in 0.01 in 0.25 in (1981)
Month to date precipitation T 0.05  
Year to date precipitation 4.17 4.34  
Snow  
Snow 0.00 in 0.00 in 0.00 in (2002)
Month to date snowfall 0.0 0.0  
Year to date snowfall 1.1 8.6  
Since 1 July snowfall 0.0 0.0  
Snow Depth 0.00 in    
Sea Level Pressure  
Sea Level Pressure 29.84 in    
Wind  
Wind Speed 10 mph (NW)    
Max Wind Speed 22 mph    
Max Gust Speed 29 mph    
Visibility 10 miles    
Events      
T = Trace of Precipitation, MM = Missing Value Source: NWS Daily Summary

Daily Weather History Graph

Daily Weather History Graph

Search for Another Location

Airport or City:

Trip Planner

Search our weather history database for the weather conditions in past years. The results will help you decide how hot, cold, wet, or windy it might be!

Date:

Astronomy

Jul. 05, 2013 Rise Set
Actual Time 5:15 AM PDT 8:57 PM PDT
Civil Twilight 4:37 AM PDT 9:36 PM PDT
Nautical Twilight 3:45 AM PDT 10:27 PM PDT
Astronomical Twilight 2:32 AM PDT 11:39 PM PDT
Moon 3:22 AM PDT (7/5) 6:53 PM PDT (7/5)
Length of Visible Light 16h 58m
Length of Day
15h 41m
Waning Crescent, 6% of the Moon is Illuminated
Jul 5
Waning Crescent
Jul 8
New
Jul 15
First Quarter
Jul 22
Full
Jul 29
Last Quarter

Hourly Weather History & Observations

Time (PDT) Temp. Dew Point Humidity Pressure Visibility Wind Dir Wind Speed Gust Speed Precip Events Conditions
12:53 AM 66.0 °F 44.1 °F 45% 29.85 in 10.0 mi NNW 18.4 mph - N/A   Clear
1:53 AM 64.9 °F 44.1 °F 47% 29.86 in 10.0 mi NW 12.7 mph - N/A   Clear
2:53 AM 64.0 °F 44.1 °F 48% 29.85 in 10.0 mi WNW 5.8 mph - N/A   Clear
3:53 AM 64.9 °F 43.0 °F 45% 29.85 in 10.0 mi NW 9.2 mph 16.1 mph N/A   Clear
4:53 AM 63.0 °F 43.0 °F 48% 29.86 in 10.0 mi NW 4.6 mph - N/A   Clear
5:53 AM 63.0 °F 43.0 °F 48% 29.87 in 10.0 mi North 5.8 mph - N/A   Clear
6:53 AM 66.0 °F 43.0 °F 43% 29.88 in 10.0 mi NW 6.9 mph - N/A   Clear
7:53 AM 70.0 °F 42.1 °F 36% 29.88 in 10.0 mi NW 17.3 mph 21.9 mph N/A   Clear
8:53 AM 72.0 °F 43.0 °F 35% 29.88 in 10.0 mi NW 17.3 mph - N/A   Clear
9:53 AM 75.0 °F 43.0 °F 32% 29.87 in 10.0 mi NW 13.8 mph - N/A   Clear
10:53 AM 78.1 °F 42.1 °F 28% 29.86 in 10.0 mi NW 12.7 mph - N/A   Clear
11:53 AM 81.0 °F 44.1 °F 27% 29.85 in 10.0 mi WNW 10.4 mph - N/A   Clear
12:53 PM 82.0 °F 44.1 °F 26% 29.83 in 10.0 mi NW 4.6 mph - N/A   Clear
1:53 PM 84.0 °F 43.0 °F 24% 29.82 in 10.0 mi NNW 9.2 mph - N/A   Clear
2:53 PM 86.0 °F 39.0 °F 19% 29.80 in 10.0 mi NNW 15.0 mph 23.0 mph N/A   Clear
3:53 PM 86.0 °F 41.0 °F 20% 29.79 in 10.0 mi NNW 17.3 mph - N/A   Clear
4:53 PM 84.9 °F 43.0 °F 23% 29.78 in 10.0 mi NW 16.1 mph - N/A   Clear
5:53 PM 82.9 °F 45.0 °F 26% 29.78 in 10.0 mi NNW 18.4 mph 24.2 mph N/A   Clear
6:53 PM 79.0 °F 46.0 °F 31% 29.80 in 10.0 mi NNW 12.7 mph 25.3 mph N/A   Clear
7:53 PM 75.0 °F 46.0 °F 36% 29.82 in 10.0 mi Variable 5.8 mph 19.6 mph N/A   Clear
8:53 PM 72.0 °F 45.0 °F 38% 29.83 in 10.0 mi WNW 5.8 mph - N/A   Clear
9:53 PM 69.1 °F 45.0 °F 42% 29.86 in 10.0 mi NNW 5.8 mph - N/A   Clear
10:53 PM 68.0 °F 45.0 °F 43% 29.87 in 10.0 mi NNW 8.1 mph - N/A   Clear
11:53 PM 66.0 °F 45.0 °F 47% 29.86 in 10.0 mi NW 5.8 mph - N/A   Clear